Regional Weather Roundup
Issued by NWS

Home | Current Version | Previous Version | Graphics & Text | Print | Product List | Glossary On
Versions: 1 2 3 4 5 6 7 8 9 10 11 12 13 14 15 16 17 18 19 20 21 22 23 24 25 26 27 28 29 30 31 32 33 34 35 36 37 38 39 40 41 42 43 44 45 46 47 48 49 50
000
ASUS43 KIND 261709
RWRIN

WEATHER ROUNDUP FOR INDIANA
NATIONAL WEATHER SERVICE INDIANAPOLIS IN
1200 PM EST SUN FEB 26 2017

NOTE: "FAIR" INDICATES FEW OR NO CLOUDS BELOW 12,000 FEET WITH NO
SIGNIFICANT WEATHER AND/OR OBSTRUCTIONS TO VISIBILITY.

* - STATION DOES NOT REPORT WEATHER SUCH AS PRECIPITATION OR FOG.

+ - STATION NOT QUALITY CONTROLLED BY THE NATIONAL WEATHER SERVICE.
    USE DATA WITH CAUTION...ESPECIALLY DEWPOINT AND RELATIVE
    HUMIDITY OBSERVATIONS.

INZ001>003-010>013-019-020-261800-
NORTHWEST INDIANA

CITY           SKY/WX    TMP DP  RH WIND       PRES   REMARKS
GARY /AIRPORT/ PTSUNNY   39  14  35 S17G35    30.02F
KNOX *+        SUNNY     37  -8  14 S22       30.06F
LA PORTE +     SUNNY     37  21  53 SW21G26   30.04F
MICHIGAN CITY+ PTSUNNY   37  19  48 S12G29    30.03F
MONTICELLO +   SUNNY     38  17  41 S15G23    30.09F
RENSSELAER +   PTSUNNY   41  16  36 S22G29    30.08F
VALPARAISO     MOSUNNY   40  17  39 S22G29    30.04F

$$

LMZ046-743>745-261800-
SOUTHERN LAKE MICHIGAN

STATION/POSITION TIME  TEMP    WIND        PRES    WAVE
                       AIR SEA DIR/SP/G            HT
                 (UTC) (F)     (DEG/KT/KT) (MB)    (FT)
BURNS HARBOR     1640   37     190/ 18/ 28 1016.9F
MICHIGAN CITY    1640   35     160/ 17/ 20   N/A

$$

INZ004-005-014>016-021>024-261800-
NORTH CENTRAL INDIANA

CITY           SKY/WX    TMP DP  RH WIND       PRES   REMARKS
ELKHART        SUNNY     36  19  51 SW13G20   30.05F
GOSHEN         SUNNY     36  16  44 SW20G30   30.07F
LOGANSPORT +   SUNNY     36  23  60 S18       30.12F
PERU/GRISSOM   SUNNY     36  22  56 S21       30.10F
ROCHESTER +    SUNNY     37  19  48 SW12G24   30.09F
SOUTH BEND     SUNNY     36  19  50 SW17G29   30.05F
WARSAW +       SUNNY     36  16  44 SW9G18    30.08F

$$

INZ006>009-017-018-025>027-261800-
NORTHEAST INDIANA

CITY           SKY/WX    TMP DP  RH WIND       PRES   REMARKS
ANGOLA *+      SUNNY     34  19  55 SW14      30.07F WCI  24
AUBURN +       SUNNY     36  18  48 S13G18    30.10F
FORT WAYNE     MOSUNNY   36  20  52 SW17G23   30.12F
HUNTINGTON +   SUNNY     35  19  52 SW10      30.12F WCI  27
KENDALLVILLE + MOSUNNY   35  19  53 SW15      30.08F WCI  25

$$

INZ028-029-035-036-043>045-051>053-261800-
WEST CENTRAL INDIANA

CITY           SKY/WX    TMP DP  RH WIND       PRES   REMARKS
LAFAYETTE      SUNNY     38  19  46 S12G21    30.12F
TERRE HAUTE    SUNNY     43  14  31 S15G21    30.16F

$$

INZ030>032-037>040-046>048-054>057-064-065-261800-
CENTRAL INDIANA

CITY           SKY/WX    TMP DP  RH WIND       PRES   REMARKS
CP ATTERBURY + SUNNY     41  14  33 S12       30.18F
COLUMBUS       SUNNY     37  18  44 S14       30.20F
FISHERS *+     SUNNY     37  21  52 SW9G20    30.16F
FRANKFORT +    SUNNY     38  24  55 SW13G20   30.13F
GREENWOOD *+   SUNNY     38  15  38 SW10      30.18F
INDIANAPOLIS   MOSUNNY   39  15  37 S16       30.16F
-EAGLE CREEK   SUNNY     38  15  39 S9        30.15F
KOKOMO +       SUNNY     36  22  56 S16       30.13F
MARION +       SUNNY     33  24  68 SW16G23   30.14F WCI  23
MT COMFORT *+  SUNNY     37  18  44 SW14      30.16F
SHELBYVILLE    SUNNY     39  18  42 S13       30.17F
ZIONSVILLE +   SUNNY     35  20  55 S14G23    30.15S WCI  26

$$

INZ033-034-041-042-049-050-058-059-261800-
EAST CENTRAL INDIANA

CITY           SKY/WX    TMP DP  RH WIND       PRES   REMARKS
MUNCIE         SUNNY     37  19  48 S16G22    30.15F

$$

INZ060-061-067>069-081>083-085>088-261800-
SOUTHWEST INDIANA

CITY           SKY/WX    TMP DP  RH WIND       PRES   REMARKS
EVANSVILLE     SUNNY     43  17  35 S12       30.22F
HUNTINGBURG *+ SUNNY     41  14  33 S13G20    30.21F
WASHINGTON +   SUNNY     40  16  39 SE12      30.20S

$$

INZ062-063-066-070>080-084-089>092-261800-
SOUTH CENTRAL AND SOUTHEAST INDIANA

CITY           SKY/WX    TMP DP  RH WIND       PRES   REMARKS
BEDFORD +      SUNNY     39  14  35 SE9       30.19F
BLOOMINGTON    SUNNY     40  15  36 S12G17    30.17F
MADISON *+     SUNNY     39  18  41 S6        30.23S
NORTH VERNON + SUNNY     37  16  41 S3        30.21F
SEYMOUR +      SUNNY     41  19  42 S9        30.21F

$$




USA.gov is the U.S. government's official web portal to all federal, state and local government web resources and services.